User: anonymous   Login
Location: Oshawa
(43.9000°N, 78.8670°W)
Time: 03:36:01
(UTC-04:00)
Language:

Cosmos 1707 Rocket - Orbit

View from above orbital plane
View from above orbital plane
View from above satellite
View from above satellite

Ground track
Ground track

The orbit data is extracted from the following two-line orbital elements,

1 16327U 85113B   17290.58597235  .00000116  00000-0  11194-4 0  9998
2 16327  82.5349 337.9818 0017750 307.7997 204.6774 14.83376036720025
Epoch (UTC): 17 October 2017 14:03:48
Eccentricity: 0.0017750
inclination: 82.5349°
perigee height: 606 km
apogee height: 631 km
right ascension of ascending node: 337.9818°
argument of perigee: 307.7997°
revolutions per day: 14.83376036
mean anomaly at epoch: 204.6774°
orbit number at epoch: 72002

The dashed part of the orbit path shows where the satellite is in the earth's shadow,  

DLR